STARLINK-3839, 52480

Orbit data source: Space-Track

STARLINK-3839, 52480 is a payload satellite in LEO that was launched on Fri, 06 May 2022 UTC via an FALCON 9 launch vehicle from the Air Force Eastern Test Range (AFETR). Payload-class satellites include a variety of spacecraft equipped with specific instruments for various scientific and technological missions. These include communications satellites like Starlink; space stations such as the ISS; scientific satellites like the Hubble; Earth observation satellites from companies like Planet Labs, Umbra, and HawkEye 360; GPS; miniature CubeSats for education and research; and military/defense satellites.

STARLINK-3839 will be above the set Earth location in 3 hours
Identifier
52480, 2022-049AF
Orbit
LEO
Last TLE update
6 hours ago
Origin
Manufacturer
SpaceX/Seattle
Mission
Operational Commercial Communications
Bus & Motor
STARLINK, Unknown motor
Mass
297 kg wet, ~220 kg dry
Launch date (UTC)
2022-05-06 (3 years ago)
Launch vehicle
FALCON 9
Launch site
Air Force Eastern Test Range (AFETR)
Object type
Payload
Rocket body
Debris
Shape & HBR
Box + 1 Pan, 8.86 m
Radar Cross Section
13.562 m², Large (>1 m²)

Expand to show TLE details & history

TLE from 6 hours ago
0 STARLINK-3839
1 52480U 22049AF  25151.24678591  .00001489  00000-0  11169-3 0  9995
2 52480  53.2174 247.0551 0001384  87.2044 272.9106 15.08827282169778
Epoch: 2025-05-31T05:55Z
TLE epoch observation values (Epoch: 2025-05-31T05:55:22.302Z)
Latitude
-0.00007°
Longitude
-90.7778°
Altitude
540.631 km
Speed
7.593 km/s
True Right ascension
16h 28m 13s
True Declination
0° 00' 00"
Sunlit
Object was in full shadow at epoch
Visualization orbit readout
Latitude
-48.68311°
Longitude
145.88629°
Altitude
557.426 km
Speed
7.582 km/s
Apparent Right ascension
08h 50m 34s
Apparent Declination
-44° 37' 38"
Sunlit
Object is in daylight
Visualization observer readout
Local Sidereal Time
21:23:59
Azimuth
130.069° SE
Elevation
-82.235°
Doppler factor
1
Orbital elements
Apogee altitude
540.985 km
Perigee altitude
539.07 km
Semi-major axis
6,918.164 km
Eccentricity
0.00014
Inclination
53.2174°
RAAN
247.0551°
Arg. of periapsis
87.2044°
True anomaly
Unknown
Mean anomaly
272.9106°
Eccentric anomaly
Unknown
Mean motion
3.77187 °/min
Orbital period
95.44 mins
BSTAR
0.00011169
Loading maneuver chart data...
Loading SW <> Apogee altitude chart data...
Loading historical data...
Loading historical data...
Loading historical data...
Loading historical data...
Loading historical data...
Loading historical data...
Loading historical data...

STARLINK-3839 Visibility forecast

Observer location: undefined°, undefined°

Span
Click to sort rows by Start time (UTC) header in descending order
Start Az.
Max El. time (UTC)
Max El. Az.
Max El.
End time (UTC)
End Az.
4 mins2025-05-31 14:19:32.681Z351.846° N2025-05-31 14:21:32.681Z30.079° NE17.868°2025-05-31 14:23:32.681Z62.237° ENE
6 mins2025-05-31 15:58:32.681Z315.169° NNW2025-05-31 16:00:32.681Z343.072° N42.964°2025-05-31 16:04:32.681Z125.7° SE
6 mins2025-06-01 09:08:32.681Z236.375° WSW2025-06-01 09:11:32.681Z353.884° N43.86°2025-06-01 09:14:32.681Z46.198° ENE
4 mins2025-06-01 10:49:32.681Z308.698° NW2025-06-01 10:51:32.681Z345.982° N17.925°2025-06-01 10:53:32.681Z19.387° NNE
|